Butte, MT

1:06 PM MST on January 24, 2017 (GMT -0700)
Mooney

Weather History for KBTM - June, 2014

Change the Weather History Date:

Sunday, June 8, 2014

  Actual Average Record
Temperature  
Mean Temperature 56 °F 54 °F  
Max Temperature 70 °F 67 °F 89 °F (1996)
Min Temperature 41 °F 40 °F 28 °F (1979)
Degree Days  
Heating Degree Days 9 12  
Month to date heating degree days 97 99  
Since 1 June heating degree days 97 99  
Since 1 July heating degree days 8846 9031  
Cooling Degree Days 0 0  
Month to date cooling degree days 0 0  
Year to date cooling degree days 0 0  
Since 1 June cooling degree days 0 0  
Growing Degree Days 5 (Base 50)    
Moisture  
Dew Point 28 °F    
Average Humidity 40    
Maximum Humidity 62    
Minimum Humidity 17    
Precipitation  
Precipitation T in 0.09 in 3.00 in (1913)
Month to date precipitation 0.34 0.74  
Year to date precipitation 4.62 5.65  
Sea Level Pressure  
Sea Level Pressure 30.06 in    
Wind  
Wind Speed 6 mph (East)    
Max Wind Speed 17 mph    
Max Gust Speed 24 mph    
Visibility 10 miles    
Events Rain    
T = Trace of Precipitation, MM = Missing Value Source: NWS Daily Summary

Daily Weather History Graph

Daily Weather History Graph

Search for Another Location

Airport or City:

Trip Planner

Search our weather history database for the weather conditions in past years. The results will help you decide how hot, cold, wet, or windy it might be!

Date:

Astronomy

Jun. 08, 2014 Rise Set
Actual Time 5:39 AM MDT 9:18 PM MDT
Civil Twilight 5:01 AM MDT 9:56 PM MDT
Nautical Twilight 4:11 AM MDT 10:47 PM MDT
Astronomical Twilight 3:02 AM MDT 11:56 PM MDT
Moon 4:27 PM MDT (6/8) 2:50 AM MDT (6/8)
Length of Visible Light 16h 54m
Length of Day
15h 38m
Waxing Gibbous, 77% of the Moon is Illuminated
Jun 8
Waxing Gibbous
Jun 12
Full
Jun 19
Last Quarter
Jun 27
New
Jul 5
First Quarter

Hourly Weather History & Observations

Time (MDT) Temp. Windchill Dew Point Humidity Pressure Visibility Wind Dir Wind Speed Gust Speed Precip Events Conditions
12:53 AM 44.1 °F 40.8 °F 30.0 °F 58% 30.04 in 10.0 mi South 5.8 mph - N/A   Overcast
1:53 AM 45.0 °F 42.6 °F 30.0 °F 56% 30.04 in 10.0 mi ESE 4.6 mph - N/A   Overcast
2:53 AM 43.0 °F 39.5 °F 30.0 °F 60% 30.05 in 10.0 mi ENE 5.8 mph - N/A   Clear
3:53 AM 42.1 °F 38.4 °F 30.0 °F 62% 30.06 in 10.0 mi SE 5.8 mph - N/A   Overcast
4:53 AM 44.1 °F 42.5 °F 30.9 °F 60% 30.07 in 10.0 mi SSE 3.5 mph - N/A   Overcast
5:53 AM 43.0 °F 40.3 °F 30.9 °F 62% 30.09 in 10.0 mi SE 4.6 mph - N/A   Overcast
6:53 AM 45.0 °F 42.6 °F 32.0 °F 60% 30.10 in 10.0 mi South 4.6 mph - 0.00 in Rain Light Rain
7:53 AM 48.0 °F - 33.1 °F 56% 30.11 in 10.0 mi Calm Calm - 0.00 in   Partly Cloudy
8:53 AM 52.0 °F - 30.0 °F 43% 30.10 in 10.0 mi Calm Calm - N/A   Clear
9:53 AM 55.9 °F - 28.9 °F 36% 30.09 in 10.0 mi Variable 4.6 mph - N/A   Clear
10:53 AM 60.1 °F - 28.0 °F 30% 30.09 in 10.0 mi NNW 4.6 mph - N/A   Partly Cloudy
11:53 AM 62.1 °F - 25.0 °F 24% 30.09 in 10.0 mi NW 4.6 mph - N/A   Scattered Clouds
12:53 PM 64.9 °F - 26.1 °F 23% 30.09 in 10.0 mi NW 11.5 mph 17.3 mph N/A   Overcast
1:53 PM 64.4 °F - 26.6 °F 24% 30.17 in 10.0 mi North 9.2 mph - N/A   Mostly Cloudy
2:53 PM 64.0 °F - 25.0 °F 23% 30.08 in 10.0 mi NW 11.5 mph 18.4 mph N/A   Mostly Cloudy
3:53 PM 64.9 °F - 26.1 °F 23% 30.06 in 10.0 mi Variable 4.6 mph - N/A   Mostly Cloudy
4:53 PM 66.9 °F - 24.1 °F 20% 30.04 in 10.0 mi North 5.8 mph 17.3 mph N/A   Scattered Clouds
5:53 PM 68.0 °F - 23.0 °F 18% 30.02 in 10.0 mi West 12.7 mph - N/A   Mostly Cloudy
6:53 PM 66.9 °F - 23.0 °F 19% 30.01 in 10.0 mi WNW 10.4 mph - N/A   Partly Cloudy
7:53 PM 66.9 °F - 25.0 °F 21% 30.00 in 10.0 mi Variable 3.5 mph - N/A   Clear
8:53 PM 63.0 °F - 26.1 °F 25% 30.00 in 10.0 mi NNW 3.5 mph - N/A   Clear
9:53 PM 54.0 °F - 28.9 °F 38% 30.03 in 10.0 mi SE 5.8 mph - N/A   Clear
10:53 PM 51.1 °F - 30.0 °F 44% 30.03 in 10.0 mi SSE 4.6 mph - N/A   Clear
11:53 PM 46.9 °F - 30.0 °F 52% 30.03 in 10.0 mi SE 6.9 mph - N/A   Clear